Terminal Aerodrome Forecast
Issued by NWS Huntsville, AL

Home | Current Version | Previous Version | Text Only | Print | Product List | Glossary On
Versions: 1 2 3 4 5 6 7 8 9 10 11 12 13 14 15 16 17 18 19 20 21 22 23 24 25 26 27 28 29 30 31 32 33 34 35
000
FTUS44 KHUN 210743 AAA
TAFHSV
TAF AMD
KHSV 210743Z 2108/2206 17007KT P6SM VCSH OVC023
      TEMPO 2108/2112 2SM SHRA BR BKN010
     FM211200 16010KT P6SM BKN020 BKN080
     FM211500 18013KT P6SM OVC015
     FM211800 19010G15KT P6SM VCSH SCT015 BKN050
     FM220000 18010KT P6SM -SHRA SCT015 BKN050=

USA.gov is the U.S. government's official web portal to all federal, state and local government web resources and services.